Total_Precipitation_Accumulation
1.05 1.37 1.19 1.37 1.76 2.10 1.52 1.55 1.87 2.00 1.90 1.93 1.96 2.03 2.36 1.87 1.57 1.94 1.81 1.72 2.15 2.63
1.10 1.44 1.58 2.32 1.99 1.89 2.24 2.12 3.22 2.87 2.47 3.13 3.20 2.81 2.84 2.47 2.34 2.85 2.17 2.10 2.27 2.23
1.48 1.45 1.51 1.89 1.45 1.76 2.24 2.52 5.67 4.90 3.25 2.96 2.99 2.46 2.86 2.18 2.68 2.33 1.82 2.03 1.65 1.91
1.17 1.26 1.06 0.76 0.79 0.83 1.20 1.99 3.13 5.15 2.98 2.87 2.66 2.33 3.09 2.64 3.22 2.65 2.30 2.23 1.84 2.28
1.53 1.67 0.96 0.58 0.46 0.44 0.67 1.33 2.23 3.27 3.15 2.99 2.51 2.50 3.14 3.02 2.59 2.99 2.67 2.66 2.39 2.65
1.64 1.35 1.59 0.93 0.49 0.51 0.69 1.05 1.23 2.00 2.50 2.08 1.82 2.22 2.46 3.26 3.12 2.66 2.83 2.60 2.31 2.71
1.44 1.13 1.41 1.26 0.69 0.43 0.55 0.85 0.94 1.02 1.45 1.55 1.59 1.54 1.90 2.17 2.11 2.29 2.28 2.83 2.74 2.48
2.00 1.45 1.43 1.98 1.98 1.15 1.01 1.03 1.11 1.51 1.75 1.94 1.70 1.27 1.81 1.85 1.76 1.84 1.76 2.04 2.40 2.52
2.47 2.77 2.60 2.61 3.33 2.86 2.37 2.54 2.18 1.52 1.60 1.71 1.13 1.52 1.90 1.46 1.72 1.81 1.64 1.64 1.74 2.05
3.37 3.45 2.85 2.92 3.61 3.39 3.82 3.94 2.89 2.50 2.79 2.60 2.26 2.16 2.31 2.23 1.32 1.53 1.60 1.68 1.63 1.50
3.44 3.92 3.86 3.43 3.20 3.77 4.38 4.18 3.85 3.89 3.86 3.78 3.30 3.48 3.06 3.40 1.90 1.11 1.14 1.34 1.35 1.30
2.91 3.76 4.23 4.08 3.67 3.72 4.04 3.74 3.36 3.48 3.56 3.12 2.40 3.63 3.54 3.95 3.07 2.12 1.81 1.70 1.33 1.20
2.50 2.37 2.54 3.15 3.56 3.55 3.71 3.70 3.48 2.92 2.69 2.79 2.30 3.49 3.52 3.21 2.37 1.62 1.65 1.87 1.63 1.56
3.17 3.30 3.39 2.88 3.31 3.88 4.34 4.09 3.80 3.33 3.95 3.91 3.69 3.66 3.83 3.64 3.06 2.57 2.51 1.79 1.84 2.05